Regional Weather Roundup
Issued by NWS

Home | Current Version | Previous Version | Text Only | Print | Product List | Glossary Off
Versions: 1 2 3 4 5 6 7 8 9 10 11 12 13 14 15 16 17 18 19 20 21 22 23 24 25 26 27 28 29 30 31 32 33 34 35 36 37 38 39 40 41 42 43 44 45 46 47 48 49 50

000
ASUS43 KLOT 312100
RWRIL

ILLINOIS REGIONAL WEATHER ROUNDUP
NATIONAL WEATHER SERVICE CHICAGO/ROMEOVILLE IL
400 PM CDT FRI JUL 31 2015

NOTE: "FAIR" INDICATES FEW OR NO CLOUDS BELOW 12,000 FEET WITH NO
SIGNIFICANT WEATHER AND/OR OBSTRUCTIONS TO VISIBILITY.

* THESE STATIONS ARE NOT UNDER NWS QUALITY CONTROL. THEY ALSO MAY NOT
  REPORT WEATHER SUCH AS PRECIPITATION OR FOG.

ILZ001-002-007-009-015-016-024-312200-
NORTHWEST ILLINOIS

CITY           SKY/WX    TMP DP  RH WIND       PRES   REMARKS
MOLINE         SUNNY     89  58  34 NW18G26   30.01F HX  88
STERLING*      SUNNY     84  59  42 NW17G28   29.97F HX  84
$$

ILZ003-004-008-010-011-017-018-312200-
NORTH CENTRAL ILLINOIS

CITY           SKY/WX    TMP DP  RH WIND       PRES   REMARKS
ROCKFORD       MOSUNNY   85  50  29 NW21G30   29.99F HX  83
$$

ILZ005-006-012>014-019>023-312200-
NORTHEAST ILLINOIS

CITY           SKY/WX    TMP DP  RH WIND       PRES   REMARKS
CHICAGO-OHARE  MOSUNNY   86  50  28 NW17G29   29.93F HX  84
CHICAGO-MIDWAY MOSUNNY   89  48  24 NW18G30   29.94S HX  86
AURORA         SUNNY     84  55  36 NW14G24   29.97F HX  83
WAUKEGAN       SUNNY     82  47  29 NW14G26   29.93F HX  80
DUPAGE AIRPORT SUNNY     84  50  30 NW16G26   29.95F HX  82
WHEELING       SUNNY     86  46  24 NW21G36   29.95S HX  83
NORTHERLY ISL    N/A     85  48  27 W15         N/A  HX  82
$$

LMZ740>746-312200-
SOUTHERN LAKE MICHIGAN

STATION/POSITION SKY/WX   TEMP    WIND        PRES    VSBY  WAVE
                          AIR SEA DIR/SP/G                  HT/PER
                          (F)     (DEG/KT/KT) (MB)    (MI)  (FT/S)
HARRISON CRIB              82     290/ 20/ 26   N/A
BURNHAM HARBOR             85     280/ 15/ 21   N/A
CALUMET HARBOR             87     270/  9/ 15   N/A
BURNS HARBOR               80      10/  1/  4 1014.6F
MICHIGAN CITY              79     250/  5/  6   N/A
MICHIGAN CITY 6N           78 76  300/  4/  4   N/A           1/ 3
ST. JOSEPH                 76 74  300/  8/ 10   N/A           2/ 4
$$

ILZ025>027-034>036-040-047-049-050-058-095>099-312200-
WEST-CENTRAL ILLINOIS

CITY           SKY/WX    TMP DP  RH WIND       PRES   REMARKS
QUINCY         SUNNY     87  63  44 W9        30.05F HX  88
$$

ILZ028>032-037-038-041>044-048-051>054-059>061-312200-
CENTRAL ILLINOIS

CITY           SKY/WX    TMP DP  RH WIND       PRES   REMARKS
DECATUR        MOSUNNY   90  59  35 NW15G23   30.02F HX  89
PEORIA         SUNNY     90  60  36 NW7       30.02F HX  89
SPRINGFIELD    SUNNY     90  67  46 N12       30.03F HX  93
TAYLORVILLE    NOT AVBL
$$

ILZ033-039-045-046-055>057-062-063-312200-
EAST-CENTRAL ILLINOIS

CITY           SKY/WX    TMP DP  RH WIND       PRES   REMARKS
CHAMPAIGN      SUNNY     86  57  37 NW14      30.02F HX  85
MATTOON        MOSUNNY   90  63  40 NW14      30.02F HX  91
$$

ILZ079-100>102-312200-
SOUTHWEST ILLINOIS

CITY           SKY/WX    TMP DP  RH WIND       PRES   REMARKS
BELLEVILLE     SUNNY     91  66  43 VRB6      30.03F HX  93
CAHOKIA*       SUNNY     94  55  26 NW8       30.03F HX  92
$$

ILZ064>066-069>071-074>076-080>082-084>086-088>090-092>094-312200-
SOUTH-CENTRAL ILLINOIS

CITY           SKY/WX    TMP DP  RH WIND       PRES   REMARKS
CARBONDALE     MOSUNNY   90  66  45 N3        30.05F HX  92
MT. VERNON     MOSUNNY   90  64  43 N3        30.05  HX  91
$$

ILZ067-068-072-073-078-083-087-091-312200-
SOUTHEAST ILLINOIS

CITY           SKY/WX    TMP DP  RH WIND       PRES   REMARKS
LAWRENCEVILLE  SUNNY     90  64  42 NW10      30.02F HX  91
$$

ABBREVIATIONS USED IN REMARKS
   TC - TEMPERATURE IN CELSIUS
  WCI - WIND CHILL INDEX
   HX - HEAT INDEX
  VSB - VISIBILITY
$$




USA.gov is the U.S. government's official web portal to all federal, state and local government web resources and services.